{"data":{"norad_id":69830,"intl_designator":"2026-154M","name":"STARLINK-37621","alt_names":[],"object_type":"PAYLOAD","status":"ACTIVE","operator":null,"country":"US","launch_date":"2026-07-05","launch_site_code":"AFETR","launch_vehicle":null,"mission":null,"orbit_class":"UNKNOWN","rcs_meters":null,"size_class":null,"mass_kg":null,"dimensions":null,"purposes":["comms"],"wikipedia_slug":null,"has_3d_model":false,"image_url":null,"decayed_at":null,"tle_current":{"epoch":"2026-09-19T16:38:23.451936Z","epoch_age_seconds":87483,"freshness":"FRESH","line1":"1 69830U 26154M   26262.69332699  .00014616  00000+0  44266-3 0  9991","line2":"2 69830  53.1580 335.5485 0001179  91.7684 268.3454 15.34414261 13115","mean_motion":15.34414261,"eccentricity":0.0001179,"inclination_deg":53.158,"raan_deg":335.5485,"arg_perigee_deg":91.7684,"mean_anomaly_deg":268.3454,"bstar":0.00044266,"rev_number":1311,"period_min":93.846885850861,"perigee_km":461.85432377106,"apogee_km":463.46738390499,"semimajor_km":6840.797853838,"source":"CELESTRAK","updated_at":"2026-09-20T09:00:44.294881Z"}}}